{"data":{"norad_id":61943,"intl_designator":"2024-209E","name":"STARLINK-11425 [DTC]","alt_names":[],"object_type":"PAYLOAD","status":"ACTIVE","operator":null,"country":"US","launch_date":"2024-11-14","launch_site_code":"AFWTR","launch_vehicle":null,"mission":null,"orbit_class":"UNKNOWN","rcs_meters":null,"size_class":null,"mass_kg":null,"dimensions":null,"purposes":["comms"],"wikipedia_slug":null,"has_3d_model":false,"image_url":null,"decayed_at":null,"tle_current":{"epoch":"2026-09-21T21:59:12.268608Z","epoch_age_seconds":63294,"freshness":"FRESH","line1":"1 61943U 24209E   26264.91611422  .00163902  00000+0  13311-2 0  9997","line2":"2 61943  53.1580 124.2202 0002501  26.4206 333.6939 15.69709002107494","mean_motion":15.69709002,"eccentricity":0.0002501,"inclination_deg":53.158,"raan_deg":124.2202,"arg_perigee_deg":26.4206,"mean_anomaly_deg":333.6939,"bstar":0.0013311,"rev_number":10749,"period_min":91.736748541626,"perigee_km":358.04446587704,"apogee_km":361.41474675352,"semimajor_km":6737.8666063153,"source":"CELESTRAK","updated_at":"2026-09-22T09:00:49.454318Z"}}}